Terminal Aerodrome Forecast
Issued by NWS

Home | Current Version | Previous Version | Text Only | Print | Product List | Glossary On
Versions: 1 2 3 4 5 6 7 8 9 10 11
693
FTUS45 KABQ 250534
TAFFMN
TAF
KFMN 250534Z 2506/2606 25014KT P6SM FEW050 BKN100
     FM251500 29012G20KT 6SM -SHRA OVC030
     FM252100 30023G35KT P6SM VCSH OVC040=

USA.gov is the U.S. government's official web portal to all federal, state and local government web resources and services.